Location: Shepherdstown, WV
(39.4326°N, 77.8042°W)
Time: 14:37:47
(UTC-04:00)

Vanguard 1 Rocket - Pass Details

Date: 13 August 2021
Orbit: 650 x 4226 km, 34.3° (Epoch: 20 September)

Event Time Altitude Azimuth Distance (km) Brightness Sun altitude
Rises 12:21:09 0° 278° (W) 8,300 12.1 62.3°
Reaches altitude 10° 12:27:26 10° 276° (W) 6,987 11.9 62.8°
Maximum altitude 12:48:09 61° 203° (SSW) 2,790 11.7 64.3°
Drops below altitude 10° 12:58:56 10° 126° (SE) 3,893 11.0 64.7°
Sets 13:01:23 0° 122° (ESE) 4,553 11.2 64.8°
